Location: Cerda�ola
(41.4919°N, 2.1403°E)
Time: 10:29:57
(UTC+00:00)

N. Korean satellite - Visible Passes

Search period start: 04 March 2021 00:00
Search period end: 14 March 2021 00:00
Orbit: 451 x 502 km, 97.2° (Epoch: 03 March)

Date Brightness Start Highest point End Pass type
(mag) Time Alt. Az. Time Alt. Az. Time Alt. Az.
04 Mar 7.6 05:00:04 10° NNE 05:03:30 47° E 05:06:59 10° S visible
05 Mar 9.2 04:33:50 10° NE 04:36:39 22° E 04:39:29 10° SSE visible
06 Mar 10.2 04:09:13 10° E 04:09:42 10° E 04:10:10 10° E visible
06 Mar 6.8 05:39:48 10° N 05:43:14 47° WNW 05:46:42 10° SSW visible
07 Mar 6.8 05:12:56 10° NNE 05:16:30 73° ESE 05:20:07 10° S visible
08 Mar 8.5 04:46:26 10° NNE 04:49:41 31° E 04:52:56 10° SSE visible
09 Mar 9.8 04:20:35 10° NE 04:22:45 15° E 04:24:55 10° SE visible
10 Mar 6.5 05:25:50 10° N 05:29:25 74° WNW 05:33:02 10° SSW visible
11 Mar 7.7 04:59:07 10° NNE 05:02:37 47° E 05:06:08 10° S visible
12 Mar 9.3 04:32:51 10° NE 04:35:43 22° E 04:38:35 10° SSE visible
13 Mar 10.2 04:08:07 10° E 04:08:42 10° E 04:09:17 10° E visible
